sat.trackr.live / text

‹ back to catalog

STARLINK-11496 [DTC]

NORAD 62267 · 2024-237A

PAYLOAD ACTIVE UNKNOWN

§ Identity

Operator
Country
US
Launch date
2024-12-08
Launch site
AFETR
Launch vehicle
Mass (kg)
RCS (m²)

Purposes: comms

External: N2YO · Heavens-Above · Gunter

§ Orbital elements

Epoch: 2026-05-24T21:29:04.065216Z

Period
91.67 min
Inclination
42.9991°
Eccentricity
0.0001664
Mean motion
15.70871769 rev/d
Perigee alt
355.3 km
Apogee alt
357.5 km
Semi-major
6,734.5 km
B*
1.5164e-3
RAAN
317.6108°
Arg perigee
278.6042°
Mean anomaly
81.4637°
Rev number
8,503

§ Raw data

STARLINK-11496 [DTC]1 62267U 24237A   26144.89518594  .00199129  00000+0  15164-2 0  99962 62267  42.9991 317.6108 0001664 278.6042  81.4637 15.70871769 85037

JSON: /api/v1/satellites/62267 · /tle

For live sub-satellite position, see the globe view (requires WebGL).

§ Visibility from observer

Set your observer location to see the next 7 days of passes ≥ 10°. The values pass through the URL so the page stays shareable.

No JS? Fill the form by hand. The geolocation button needs JavaScript.